Weather observations for the past three days for
Crossville, Crossville Memorial-Whitson Field Airport
Metric (Imperial)
Date Time (cdt) Wind (kph) Vis. (km) Weather Sky Cond. Temperature (ºC) Relative Humidity Wind Chill (°C) Heat Index (°C) Pressure Precipitation (cm)
Air Dwpt 6 hour altimeter (cm) sea level (mb) 1 hr 3 hr 6 hr
Max. Min.
21 10:53 Calm 16.09 Fair CLR 28.3 17.8 53% 29 77.01 1024.4
21 09:53 Vrbl 6 16.09 Fair CLR 26.7 18.3 60% 28 77.04 1024.8
21 08:53 W 9 16.09 Fair CLR 26.1 18.3 62% 27 77.04 1024.7
21 07:53 SW 6 16.09 Fair CLR 23.9 19.4 76% 24 77.04 1024.7
21 06:53 Calm 16.09 Fair CLR 21.1 19.4 21.1 18.3 90% 77.01 1024.6
21 05:53 Calm 14.48 Fair CLR 18.3 18.3 100% 77.01 1024.4
21 04:53 Calm 14.48 Fair CLR 18.3 18.3 100% 76.99 1024.3
21 03:53 Calm 16.09 Fair CLR 20 18.9 93% 76.96 1023.5
21 02:53 Calm 16.09 A Few Clouds FEW048 18.9 18.3 96% 76.96 1023.9
21 01:53 Calm 16.09 Fair CLR 19.4 18.9 97% 76.99 1024.2
21 00:53 Calm 16.09 Fair CLR 19.4 18.9 27.8 19.4 97% 77.01 1024.6
20 23:53 Calm 16.09 Fair CLR 20.6 19.4 93% 77.01 1024.7
20 22:53 Calm 16.09 A Few Clouds FEW048 21.7 18.9 84% 77.01 1024.6
20 21:53 Calm 16.09 A Few Clouds FEW047 22.8 18.9 79% 77.01 1024.5
20 20:53 N 6 16.09 Partly Cloudy SCT050 SCT060 25 18.9 69% 26 76.99 1024.0
20 19:53 Calm 16.09 Mostly Cloudy SCT047 BKN060 25.6 19.4 69% 27 76.96 1023.9
20 18:53 SE 6 16.09 Partly Cloudy SCT060 27.8 18.3 31.1 27.8 56% 29 76.96 1024.0
20 17:53 NE 13 16.09 Mostly Cloudy BKN065 30 16.7 45% 30 76.96 1023.9
20 16:53 Vrbl 6 16.09 Mostly Cloudy BKN060 30 16.1 43% 30 76.99 1024.2
20 15:53 NE 17 16.09 A Few Clouds FEW070 31.1 16.1 40% 31 77.01 1024.5
20 14:53 Calm 16.09 Mostly Cloudy BKN060 29.4 15.6 43% 29 77.06 1025.4
20 13:53 NE 11 16.09 Mostly Cloudy BKN060 29.4 15.6 43% 29 77.09 1025.7
20 12:53 NE 9 16.09 Partly Cloudy SCT055 29.4 15.6 29.4 20 43% 29 77.14 1026.4
20 11:53 Vrbl 6 16.09 Partly Cloudy SCT047 28.3 16.7 49% 29 77.17 1026.7
20 10:53 Vrbl 7 16.09 Fair CLR 27.8 16.7 51% 28 77.19 1027.1
20 09:53 Calm 16.09 Fair CLR 26.1 16.7 56% 27 77.22 1027.2
20 08:53 Vrbl 7 16.09 Fair CLR 25.6 17.2 60% 27 77.17 1026.7
20 07:53 Calm 16.09 Fair CLR 22.8 18.9 79% 77.17 1026.7
20 06:53 Calm 12.87 Fair CLR 19.4 18.9 19.4 16.7 97% 77.14 1026.6
20 05:53 Calm 4.02 Fog/Mist CLR 16.7 16.7 100% 77.14 1026.6
20 04:53 Calm 4.83 Fog/Mist CLR 16.7 16.7 100% 77.11 1026.4
20 03:53 Calm 6.44 Fog/Mist CLR 17.2 17.2 100% 77.09 1025.9
20 02:53 Calm 2.82 Fog/Mist CLR 17.2 17.2 100% 77.09 1025.7
20 01:53 Calm 8.05 Fog/Mist CLR 17.8 17.8 100% 77.06 1025.6
20 00:53 Calm 11.27 Fair CLR 18.9 18.3 25.6 18.9 96% 77.06 1025.4
19 23:53 Calm 16.09 Fair CLR 19.4 18.9 97% 77.06 1025.4
19 22:53 Calm 16.09 A Few Clouds FEW035 20 19.4 96% 77.04 1025.2
19 21:53 Calm 16.09 Fair CLR 21.1 19.4 90% 77.01 1024.8
19 20:53 Calm 16.09 Fair CLR 22.2 20 87% 76.96 1024.1
19 19:53 E 7 16.09 Fair CLR 24.4 19.4 74% 25 76.96 1023.9
19 18:53 E 7 16.09 Fair CLR 25.6 19.4 28.3 25.6 69% 27 76.96 1023.9
19 17:53 E 11 16.09 Fair CLR 26.1 18.9 65% 27 76.94 1024.0
19 16:53 E 11 16.09 Mostly Cloudy BKN038 BKN044 26.7 18.3 60% 28 76.96 1024.2
19 15:53 NE 11 16.09 A Few Clouds FEW044 28.3 17.8 53% 29 76.99 1024.2
19 14:53 NE 15 16.09 Mostly Cloudy BKN045 27.2 17.2 54% 28 77.01 1024.4
19 13:53 NE 11 16.09 A Few Clouds FEW039 26.7 17.2 56% 27 77.04 1024.8
19 12:53 Vrbl 7 16.09 Fair CLR 25.6 17.2 26.1 19.4 60% 27 77.06 1025.4
19 11:53 Vrbl 6 16.09 Fair CLR 25 17.8 64% 26 77.09 1025.6
19 10:53 Calm 16.09 Fair CLR 25 18.3 66% 26 77.09 1025.6
19 09:53 Vrbl 7 16.09 Fair CLR 23.3 17.2 69% 77.09 1025.7
19 08:53 SE 15 16.09 Fair CLR 22.8 17.8 74% 77.09 1025.6
19 07:53 E 6 16.09 Fair CLR 21.7 17.8 79% 77.06 1025.2
19 06:53 Calm 16.09 Fair CLR 19.4 18.3 22.2 17.2 93% 77.01 1024.6
19 05:53 Calm 16.09 Fair CLR 18.3 16.7 90% 76.94 1023.7
19 04:53 Calm 16.09 Fair CLR 18.9 16.7 87% 76.89 1022.9
19 03:53 Calm 16.09 Fair CLR 18.9 16.7 87% 76.84 1022.4
19 02:53 Vrbl 6 16.09 Fair CLR 20.6 16.7 78% 76.78 1021.6
19 01:53 S 6 16.09 Fair CLR 22.2 16.1 68% 76.78 1021.3
19 00:53 Calm 16.09 Fair CLR 22.2 16.7 26.1 21.7 71% 76.78 1021.2
18 23:53 SE 6 16.09 Fair CLR 22.2 17.8 76% 76.78 1021.5
18 22:53 S 7 16.09 Fair CLR 22.8 18.3 76% 76.81 1021.9
18 21:53 S 6 16.09 Fair CLR 22.8 19.4 81% 76.81 1021.7
18 20:53 Calm 16.09 Fair CLR 23.9 20 79% 24 76.76 1021.2
18 19:53 Calm 16.09 Fair CLR 24.4 20.6 79% 25 76.71 1020.6
18 18:53 S 6 16.09 Fair CLR 26.1 20.6 30 26.1 72% 28 76.71 1020.3
18 17:53 S 6 16.09 A Few Clouds FEW036 26.7 20.6 69% 28 76.68 1020.2
18 16:53 Vrbl 9 16.09 Partly Cloudy FEW042 SCT050 27.8 19.4 60% 29 76.71 1020.4
18 15:53 E 7 16.09 Mostly Cloudy FEW044 SCT055 BKN085 27.8 19.4 60% 29 76.73 1020.7
18 14:53 SE 11 16.09 Mostly Cloudy BKN080 28.3 18.9 57% 30 76.73 1020.8
18 13:53 S 11 16.09 Mostly Cloudy SCT039 BKN050 BKN080 27.8 19.4 60% 29 76.76 1021.3
18 12:53 SE 11 16.09 Mostly Cloudy FEW039 SCT050 BKN060 27.8 18.9 28.9 22.8 58% 29 76.78 1021.3
18 11:53 Vrbl 9 16.09 Partly Cloudy SCT034 27.8 20 63% 29 76.81 1021.7
Date Time (cdt) Wind (kph) Vis. (km) Weather Sky Cond. Air Dwpt Max. Min. Relative Humidity Wind Chill (°C) Heat Index (°C) altimeter (cm) sea level (mb) 1 hr 3 hr 6 hr
6 hour
Temperature (ºC) Pressure Precipitation (cm)